Weather History for KABY - January, 2013

Change the Weather History Date:

Friday, January 18, 2013

  Actual Average Record
Temperature  
Mean Temperature 49 °F 49 °F  
Max Temperature 60 °F 61 °F 79 °F (1947)
Min Temperature 37 °F 38 °F 12 °F (1977)
Degree Days  
Heating Degree Days 16 16  
Month to date heating degree days 137 288  
Since 1 July heating degree days 789 1001  
Cooling Degree Days 0 0  
Month to date cooling degree days 25 0  
Year to date cooling degree days 25 0  
Moisture  
Dew Point 33 °F    
Average Humidity 56    
Maximum Humidity 85    
Minimum Humidity 27    
Precipitation  
Precipitation 0.00 in - 0.48 in (2011)
Month to date precipitation 0.42  
Year to date precipitation 0.42  
Sea Level Pressure  
Sea Level Pressure 30.40 in    
Wind  
Wind Speed 7 mph (NNE)    
Max Wind Speed 16 mph    
Max Gust Speed 24 mph    
Visibility 10 miles    
Events      
T = Trace of Precipitation, MM = Missing Value Source: NWS Daily Summary

Daily Weather History Graph

Daily Weather History Graph

Search for Another Location

Airport or City:

Trip Planner

Search our weather history database for the weather conditions in past years. The results will help you decide how hot, cold, wet, or windy it might be!

Date:

Astronomy

Jan. 18, 2013 Rise Set
Actual Time 7:35 AM EST 5:59 PM EST
Civil Twilight 7:09 AM EST 6:25 PM EST
Nautical Twilight 6:40 AM EST 6:54 PM EST
Astronomical Twilight 6:10 AM EST 7:24 PM EST
Moon 11:44 AM EST (1/18) 12:19 AM EST (1/18)
Length of Visible Light 11h 15m
Length of Day
10h 23m
Waxing Crescent, 47% of the Moon is Illuminated
Jan 18
Waxing Crescent
Jan 18
First Quarter
Jan 26
Full
Feb 3
Last Quarter
Feb 10
New

Hourly Weather History & Observations

Time (EST) Temp. Windchill Dew Point Humidity Pressure Visibility Wind Dir Wind Speed Gust Speed Precip Events Conditions
12:39 AM 42.8 °F 37.5 °F 35.6 °F 76% 30.25 in 10.0 mi North 9.2 mph - N/A   Scattered Clouds
12:53 AM 43.0 °F 38.2 °F 36.0 °F 76% 30.26 in 10.0 mi North 8.1 mph - N/A   Scattered Clouds
1:15 AM 42.8 °F 38.0 °F 35.6 °F 76% 30.26 in 10.0 mi NNW 8.1 mph - N/A   Mostly Cloudy
1:34 AM 42.8 °F 38.0 °F 35.6 °F 76% 30.27 in 10.0 mi NNW 8.1 mph - N/A   Scattered Clouds
1:53 AM 43.0 °F 38.2 °F 36.0 °F 76% 30.28 in 10.0 mi North 8.1 mph - N/A   Clear
2:53 AM 42.1 °F 37.7 °F 36.0 °F 79% 30.31 in 10.0 mi North 6.9 mph - N/A   Clear
3:53 AM 41.0 °F 36.4 °F 36.0 °F 82% 30.32 in 10.0 mi North 6.9 mph - N/A   Clear
4:53 AM 39.9 °F 36.7 °F 35.1 °F 83% 30.34 in 10.0 mi North 4.6 mph - N/A   Clear
5:53 AM 39.0 °F 35.7 °F 35.1 °F 86% 30.37 in 10.0 mi North 4.6 mph - N/A   Clear
7:53 AM 37.9 °F 34.4 °F 34.0 °F 86% 30.42 in 10.0 mi North 4.6 mph - N/A   Clear
8:53 AM 41.0 °F 37.1 °F 36.0 °F 82% 30.46 in 10.0 mi NNE 5.8 mph - N/A   Clear
9:53 AM 45.0 °F 40.6 °F 36.0 °F 71% 30.49 in 10.0 mi NE 8.1 mph 18.4 mph N/A   Partly Cloudy
10:53 AM 50.0 °F - 36.0 °F 59% 30.49 in 10.0 mi NE 12.7 mph - N/A   Clear
11:53 AM 54.0 °F - 32.0 °F 43% 30.48 in 10.0 mi NE 11.5 mph 17.3 mph N/A   Clear
12:53 PM 57.0 °F - 30.9 °F 37% 30.45 in 10.0 mi ENE 11.5 mph - N/A   Clear
1:53 PM 59.0 °F - 28.9 °F 32% 30.43 in 10.0 mi NNE 8.1 mph 16.1 mph N/A   Clear
2:53 PM 60.1 °F - 27.0 °F 28% 30.43 in 10.0 mi NE 10.4 mph 19.6 mph N/A   Clear
3:53 PM 59.0 °F - 27.0 °F 29% 30.43 in 10.0 mi ENE 11.5 mph - N/A   Clear
4:53 PM 57.9 °F - 28.0 °F 32% 30.43 in 10.0 mi NE 13.8 mph - N/A   Clear
5:53 PM 55.0 °F - 28.0 °F 35% 30.45 in 10.0 mi NNE 6.9 mph - N/A   Clear
6:53 PM 48.0 °F - 32.0 °F 54% 30.47 in 10.0 mi NNE 3.5 mph - N/A   Clear
7:53 PM 44.1 °F - 33.1 °F 65% 30.47 in 9.0 mi Calm Calm - N/A   Clear
8:53 PM 41.0 °F 39.0 °F 33.1 °F 73% 30.48 in 10.0 mi NNE 3.5 mph - N/A   Clear
9:53 PM 41.0 °F - 34.0 °F 76% 30.48 in 10.0 mi Calm Calm - N/A   Clear
10:53 PM 39.9 °F 37.8 °F 30.0 °F 68% 30.48 in 10.0 mi NE 3.5 mph - N/A   Clear
11:53 PM 37.9 °F 33.5 °F 30.0 °F 73% 30.46 in 10.0 mi ENE 5.8 mph - N/A   Clear